Frontpage

Topic Replies Views Last post
0 1097 2013-03-19 01:11:20 by choad
D.I.Y. by square
0 1087 2013-03-16 02:27:58 by square
0 943 2013-03-11 11:35:58 by choad
0 1084 2013-03-09 04:54:28 by square
0 973 2013-02-25 05:43:17 by choad
Holy See Again by choad
0 927 2013-02-13 21:35:23 by choad
Baby Mama by square
0 940 2013-02-10 13:02:33 by square
Gag Order by square
0 940 2013-01-03 10:31:48 by square
Soul Food by choad
0 923 2013-01-01 11:27:12 by choad
2012-12-21, Adios by choad
0 1006 2012-12-20 22:48:30 by choad
0 976 2012-11-30 18:43:14 by choad
0 969 2012-11-29 02:47:51 by choad
The End Is Nigh by choad
0 973 2012-11-29 00:46:03 by choad
0 1050 2012-11-28 18:00:55 by choad
Estimated Prophet by choad
0 1047 2012-09-13 06:21:41 by choad
Interment Cycle by square
0 1088 2012-08-23 00:15:26 by square
Home Alone III by choad
0 1075 2012-08-08 05:28:40 by choad
0 1193 2012-07-25 05:32:02 by choad
Robogeddon by choad
0 1164 2012-07-06 10:28:52 by choad
0 1202 2012-07-05 15:05:04 by Decadence
Wanks For The Memories by Decadence
0 1135 2012-07-03 16:19:52 by Decadence
Persian Haze by Decadence
0 1077 2012-07-03 09:41:37 by Decadence
Whiter Than White by square
0 1059 2012-06-21 05:02:42 by square
0 1160 2012-05-27 07:36:10 by Decadence
0 1104 2012-05-24 17:09:28 by choad
After Birther Bio by choad
0 1084 2012-05-24 17:08:15 by choad
0 1083 2012-05-24 17:06:54 by choad
0 1109 2012-05-22 23:17:31 by Decadence
Cage Does Cage by choad
0 1159 2012-04-29 22:28:15 by choad
Penguin Food by choad
0 1186 2012-04-17 08:48:35 by choad
0 1195 2012-04-05 10:15:14 by choad
Michigan Swinicide by choad
0 1215 2012-03-27 23:10:42 by choad
0 1247 2012-03-26 22:48:34 by choad
Rush To Oblivion by choad
0 1225 2012-03-09 02:57:43 by choad
Bye Bye Breitbart by choad
0 1264 2012-03-01 23:13:47 by choad
Chemical Warfare by square
0 1265 2012-02-27 00:28:15 by square
Posthumous Sodomy by square
0 1424 2012-02-26 22:32:43 by square
0 1471 2012-02-24 16:56:50 by choad
Who's Next? by choad
0 1340 2012-02-18 23:57:09 by choad
0 1233 2012-02-14 16:18:17 by choad
Rate Your Rat by choad
0 1271 2012-02-11 12:37:01 by choad
0 1229 2012-02-06 06:58:25 by choad
Newt In Space by choad
0 1285 2012-01-27 23:20:24 by choad
Unfriended by square
0 1287 2012-01-26 03:14:01 by square
Pity Party by square
0 1247 2011-12-21 04:17:31 by square
Human Migration by choad
0 1181 2011-12-13 13:22:59 by choad
Occupy Uranus by choad
0 1187 2011-11-24 17:09:59 by choad
0 1186 2011-11-19 14:13:50 by choad
Socialist Pigeons by choad
0 1163 2011-11-11 07:14:18 by choad
Cain Disabled by choad
0 1154 2011-11-08 23:13:23 by choad
9/11 by choad
0 1184 2011-09-11 00:27:20 by choad
Little Angels by square
0 1168 2011-08-31 00:44:25 by square
Fill 'er Up by square
0 1207 2011-08-25 01:56:05 by square
Fuck A Duck by choad
0 1218 2011-08-10 09:23:43 by choad
Nimoy's Day Off by choad
0 1240 2011-06-29 02:52:46 by choad
Weiner's Weiner by choad
0 1423 2011-06-14 22:29:01 by choad
Adorable by opsec
0 1462 2011-05-09 23:08:07 by opsec
0 1424 2011-05-03 12:38:15 by choad
Jaded Already? by choad
0 1661 2011-03-15 21:18:39 by choad
Tokyo Aglow by choad
0 1511 2011-03-13 03:29:16 by choad

Board footer

high-street.org